Location: Unspecified
(52.4292°N, 19.3359°E)
Time: 20:23:38
(UTC+02:00)

A-11 Canister half - Pass Details

Date: 23 May 2024
Orbit: 1515 x 1685 km, 47.2° (Epoch: 12 June)

Event Time Altitude Azimuth Distance (km) Brightness Sun altitude
Rises 06:53:03 0° 275° (W) 4,705 11.0 18.3°
Reaches altitude 10° 06:56:10 10° 271° (W) 3,706 10.5 18.7°
Maximum altitude 07:05:10 57° 197° (SSW) 1,742 9.5 20.1°
Drops below altitude 10° 07:14:07 10° 122° (ESE) 3,678 12.0 21.5°
Sets 07:17:12 0° 118° (ESE) 4,667 12.4 21.9°
